Lincoln, NE

1:56 PM CDT on August 25, 2016 (GMT -0500)
Lincoln Municipal

Weather History for KLNK - September, 2013

Change the Weather History Date:

Wednesday, September 11, 2013

  Actual Average Record
Temperature  
Mean Temperature 76 °F 68 °F  
Max Temperature 83 °F 81 °F 99 °F (1895)
Min Temperature 69 °F 56 °F 29 °F (1940)
Degree Days  
Heating Degree Days 0 2  
Month to date heating degree days 0 13  
Since 1 July heating degree days 3 19  
Cooling Degree Days 11 5  
Month to date cooling degree days 144 68  
Year to date cooling degree days 1159 1103  
Growing Degree Days 26 (Base 50)    
Moisture  
Dew Point 69 °F    
Average Humidity 81    
Maximum Humidity 97    
Minimum Humidity 65    
Precipitation  
Precipitation 0.54 in 0.10 in 1.59 in (1901)
Month to date precipitation 1.16 1.22  
Year to date precipitation 21.61 22.80  
Snow  
Snow 0.00 in 0.00 in - ()
Month to date snowfall 0.0 0.0  
Since 1 July snowfall 0.0 0.0  
Snow Depth 0.00 in    
Sea Level Pressure  
Sea Level Pressure 30.08 in    
Wind  
Wind Speed 5 mph (SSW)    
Max Wind Speed 13 mph    
Max Gust Speed 16 mph    
Visibility 9 miles    
Events Rain , Thunderstorm    
T = Trace of Precipitation, MM = Missing Value Source: NWS Daily Summary

Daily Weather History Graph

Daily Weather History Graph

Search for Another Location

Airport or City:

Trip Planner

Search our weather history database for the weather conditions in past years. The results will help you decide how hot, cold, wet, or windy it might be!

Date:

Astronomy

Sep. 11, 2013 Rise Set
Actual Time 7:04 AM CDT 7:42 PM CDT
Civil Twilight 6:36 AM CDT 8:09 PM CDT
Nautical Twilight 6:03 AM CDT 8:42 PM CDT
Astronomical Twilight 5:29 AM CDT 9:16 PM CDT
Moon 1:36 PM CDT (9/11) 11:37 PM CDT (9/11)
Length of Visible Light 13h 33m
Length of Day
12h 38m
Waxing Crescent, 39% of the Moon is Illuminated
Sep 11
Waxing Crescent
Sep 12
First Quarter
Sep 19
Full
Sep 26
Last Quarter
Oct 4
New

Hourly Weather History & Observations

Time (CDT) Temp. Heat Index Dew Point Humidity Pressure Visibility Wind Dir Wind Speed Gust Speed Precip Events Conditions
12:14 AM 71.6 °F - 69.8 °F 94% 30.06 in 8.0 mi East 8.1 mph - 0.02 in Rain Light Rain
12:29 AM 71.6 °F - 69.8 °F 94% 30.05 in 10.0 mi ENE 8.1 mph - 0.03 in Rain , Thunderstorm Light Rain
12:54 AM 72.0 °F - 69.1 °F 91% 30.03 in 10.0 mi NNE 6.9 mph - 0.03 in Rain , Thunderstorm Light Rain
1:20 AM 71.6 °F - 69.8 °F 94% 30.10 in 6.0 mi SW 12.7 mph - 0.02 in Rain Light Rain
1:29 AM 73.4 °F - 69.8 °F 88% 30.10 in 6.0 mi SW 11.5 mph - 0.03 in Rain , Thunderstorm Light Rain
1:44 AM 71.6 °F - 69.8 °F 94% 30.10 in 4.0 mi SSW 9.2 mph - 0.09 in Rain Rain
1:54 AM 72.0 °F - 69.1 °F 91% 30.05 in 6.0 mi SSW 10.4 mph - 0.12 in Rain Light Rain
2:54 AM 70.0 °F - 68.0 °F 93% 30.05 in 8.0 mi SSE 6.9 mph - 0.09 in Rain Light Rain
3:54 AM 70.0 °F - 68.0 °F 93% 30.05 in 10.0 mi South 5.8 mph - 0.02 in   Partly Cloudy
4:54 AM 70.0 °F - 68.0 °F 93% 30.04 in 10.0 mi South 10.4 mph - N/A   Partly Cloudy
5:54 AM 71.1 °F - 68.0 °F 90% 30.05 in 10.0 mi Calm Calm - 0.00 in Rain Light Rain
6:54 AM 70.0 °F - 68.0 °F 93% 30.06 in 10.0 mi SSE 3.5 mph - 0.00 in   Clear
7:54 AM 71.1 °F - 68.0 °F 90% 30.08 in 10.0 mi Calm Calm - N/A   Clear
8:54 AM 73.9 °F - 69.1 °F 85% 30.08 in 10.0 mi WSW 5.8 mph - N/A   Clear
9:54 AM 75.9 °F - 69.1 °F 79% 30.09 in 10.0 mi WNW 6.9 mph - N/A   Clear
10:54 AM 79.0 °F - 69.1 °F 72% 30.10 in 10.0 mi Calm Calm - N/A   Partly Cloudy
11:54 AM 80.1 °F 82.7 °F 68.0 °F 67% 30.10 in 10.0 mi SW 4.6 mph - N/A   Mostly Cloudy
12:54 PM 82.0 °F 85.5 °F 69.1 °F 65% 30.09 in 10.0 mi Variable 4.6 mph - N/A   Mostly Cloudy
1:54 PM 80.1 °F 82.9 °F 69.1 °F 69% 30.09 in 10.0 mi NNE 5.8 mph - N/A   Overcast
2:13 PM 80.6 °F 83.9 °F 69.8 °F 70% 30.12 in 10.0 mi NE 8.1 mph - 0.00 in Rain Light Rain
2:54 PM 78.1 °F - 69.1 °F 74% 30.09 in 10.0 mi NNE 9.2 mph - 0.00 in   Mostly Cloudy
3:54 PM 79.0 °F - 69.1 °F 72% 30.10 in 10.0 mi NNE 3.5 mph - 0.00 in   Overcast
4:54 PM 73.0 °F - 69.1 °F 87% 30.08 in 4.0 mi NE 9.2 mph - 0.20 in Rain Light Rain
5:54 PM 75.0 °F - 69.1 °F 82% 30.07 in 10.0 mi Calm Calm - 0.00 in Rain Light Rain
6:54 PM 73.9 °F - 66.9 °F 79% 30.08 in 10.0 mi ENE 3.5 mph - 0.00 in   Clear
7:54 PM 73.0 °F - 68.0 °F 84% 30.08 in 10.0 mi Calm Calm - N/A   Mostly Cloudy
8:54 PM 73.0 °F - 68.0 °F 84% 30.09 in 10.0 mi NNW 4.6 mph - N/A   Mostly Cloudy
9:54 PM 72.0 °F - 69.1 °F 91% 30.12 in 10.0 mi WNW 5.8 mph - 0.00 in   Mostly Cloudy
10:54 PM 71.1 °F - 68.0 °F 90% 30.13 in 2.5 mi SSW 5.8 mph - 0.11 in Rain Heavy Rain
11:02 PM 71.6 °F - 68.0 °F 88% 30.16 in 10.0 mi SW 3.5 mph - 0.00 in Rain Light Rain
11:54 PM 70.0 °F - 66.9 °F 90% 30.13 in 10.0 mi SSW 3.5 mph - 0.00 in   Overcast